Location: Newark
(44.5425°N, 10.7801°E)
Time: 21:14:45
(UTC+00:00)

N. Korean satellite - Pass Details

Date: 25 January 2020
Orbit: 456 x 505 km, 97.2° (Epoch: 19 February)

Event Time Altitude Azimuth Distance (km) Brightness Sun altitude
Rises 05:42:32 0° 3° (N) 2,535 10.1 -10.9°
Reaches altitude 10° 05:44:41 10° 354° (N) 1,660 9.0 -10.6°
Maximum altitude 05:47:56 33° 288° (WNW) 826 7.2 -10.0°
Drops below altitude 10° 05:51:12 10° 223° (SW) 1,673 9.0 -9.5°
Sets 05:53:24 0° 214° (SW) 2,558 10.1 -9.1°
